Volver al catálogo

STARLINK-35998

ActivoComunicacionesVLEO
NORAD 68055·PAYLOAD·🇺🇸 United States

Lanzado Mar 2, 2026 desde Vandenberg Space Force Base

Loading…

Próximos Pases (próximas 24 horas)

TLE

ActualizadoSource: CelesTrak SupGP

Época: Sep 15, 2026, 04:21 UTC

1 68055C 26041R   26258.18173611 -.00051257  00000+0 -15144-2 0  2584
2 68055  53.1583 246.4879 0001404  88.5901 346.3896 15.34416162    14

Sigue STARLINK-35998 en tiempo real con AllMySat

Download on the App Store